Zurück zum Katalog

DUBAISAT 2

AktivWissenschaftSSO
NORAD 39419·PAYLOAD·🇦🇪 UAE

Gestartet Nov 21, 2013 von Dombarovsky

Loading…

Nächste Überflüge (nächste 24 Stunden)

TLE

AktuellSource: Space-Track

Epoche: Sep 14, 2026, 13:40 UTC

1 39419U 13066D   26257.56995880  .00001948  00000-0  12113-3 0  9997
2 39419  97.4655 245.4486 0012752  85.5853 274.6833 15.10723964699889

Verfolge DUBAISAT 2 in Echtzeit mit AllMySat

Download on the App Store